Карточка аэропорта USRR

Внимание!
Информация на этой странице в стадии наполнения.
Если вы не увидели какой-то информации, или заметили неточность - пожалуйста сообщите нам!
Спасибо!
Команда RU-STAFF
Название аэропортаСургут
Название аэропорта (англ.)Surgut
Превышение196 ft. (59.7 m.)
Координаты61°20.502', 73°24.168'
Высота перехода700m
Эшелон переходаQFE>=742mm:FL040; QFE<=742mm:FL050
Коды ответчика5570-5577
Зона ОрВДТюмень РПИ (USTV)
Данные METARUSRR 131530Z 33003MPS 9999 -SHSN FEW029CB 00/M02 Q0994 R25/12//60 NOSIG RMK QFE740
Проноз погоды (TAF)USRR 131351Z 1315/1415 30007G14MPS 9999 FEW011 BKN017CB TEMPO 1315/1324 1000 SHSN BKN005 BKN016CB
NOTAMshow/hide NOTAM
AWOS   TABLE

Информация о ВПП

ВПП Длина ВПП (м.) Покрытие Курс ВПП Частота ILS
072780Асфальтобетон73110.5
252780Асфальтобетон253109.1

Диспетчерские позиции

Позывной Наименование органа УВД Частота
USRR_TWRСургут-Вышка120.800
USRR_APPСургут-Подход129.300
USRR_R_APPСургут - Круг120.300



Спутниковое изображение